RH
73 70 59 38 39 36 27 12 6 6 4 3 3 2 2 2 1 1 2 2 3 3 3 3 5 7 10 13 13 15 17 16 14 12 14 70 100 100 100 100 100 91 81 100 100
63 68 58 45 41 40 30 18 7 6 4 4 3 2 2 2 1 1 1 2 3 3 3 4 4 6 11 16 14 15 17 21 17 14 14 33 99 100 100 100 100 100 95 90 100
58 70 70 57 44 46 38 26 10 6 4 4 4 2 2 2 1 1 1 2 2 3 4 5 5 8 10 12 15 15 17 21 16 13 11 15 51 100 100 100 100 100 100 97 98
66 64 70 60 53 54 46 28 15 8 6 3 4 3 2 1 1 1 1 1 2 4 4 4 6 8 11 16 17 19 17 16 18 15 15 15 15 57 97 93 100 100 84 100 100
66 73 76 63 57 52 50 38 23 8 9 5 4 3 2 1 1 1 1 2 3 5 5 5 7 8 12 18 18 14 16 16 15 19 19 15 14 16 28 85 100 100 92 72 93
63 73 74 71 61 54 48 47 24 11 11 9 5 4 2 1 1 2 2 2 2 4 6 5 6 8 10 13 16 16 20 17 14 17 17 16 14 14 16 27 55 92 98 80 83
64 74 74 75 59 57 47 48 31 15 12 13 6 4 2 2 1 2 2 2 2 4 6 5 6 8 10 12 16 16 19 15 14 16 15 16 13 13 15 16 23 52 68 79 68
72 76 77 78 66 55 56 51 44 16 12 15 8 5 3 2 2 2 2 2 2 3 6 6 6 7 10 13 16 17 19 17 17 14 15 15 16 15 15 18 18 19 25 29 47
82 78 83 83 64 51 59 53 66 22 18 17 11 5 4 2 2 2 2 2 2 3 7 7 7 7 9 13 15 16 16 17 16 14 14 13 17 16 12 16 19 18 17 17 20
92 80 82 85 70 56 60 54 64 46 24 20 16 8 6 3 2 3 3 3 2 3 4 7 6 7 8 11 13 15 16 17 16 15 17 16 19 15 13 17 18 20 19 18 18
99 82 83 86 70 59 58 60 51 69 33 26 15 10 6 4 3 3 4 4 4 4 4 7 8 8 10 11 11 12 14 16 17 16 18 18 20 15 15 16 16 19 21 21 19
96 88 85 86 69 65 59 56 43 72 52 34 20 13 11 7 6 4 5 5 5 5 6 10 8 8 8 10 12 14 14 16 19 20 18 18 20 16 15 16 16 20 21 22 22
96 93 88 91 72 65 60 47 46 71 57 37 19 13 13 16 12 9 6 9 7 8 10 11 9 9 9 11 12 13 13 14 16 18 18 17 19 18 16 16 15 19 21 21 22
95 96 94 94 77 67 58 54 58 70 63 41 24 15 13 16 21 28 23 12 10 10 9 14 14 10 10 11 12 12 13 14 15 15 18 17 21 19 18 16 15 16 18 18 18
100 95 95 92 79 74 61 57 64 72 68 49 36 17 12 16 19 28 32 32 24 10 13 10 11 11 12 13 12 12 13 14 13 13 13 15 17 22 20 19 18 17 16 17 16
100 95 100 91 79 72 68 57 57 68 64 51 45 26 15 16 16 18 24 32 37 28 10 14 12 12 11 11 12 13 12 13 12 11 12 14 15 21 25 22 19 17 17 16 17
100 94 100 94 77 73 66 64 77 71 70 51 51 41 26 24 23 22 18 23 25 28 28 12 14 12 12 11 11 11 13 14 14 12 15 12 12 25 27 25 21 18 18 17 17
100 98 100 98 77 74 74 68 75 65 75 52 51 56 37 32 29 23 26 25 23 22 24 22 10 12 15 13 12 11 11 11 12 12 12 12 14 20 28 22 22 19 18 19 18
100 99 100 99 79 82 78 73 82 64 75 53 49 53 56 34 25 30 31 24 27 27 21 18 16 9 11 13 11 11 12 12 11 12 13 14 13 17 22 20 20 21 20 19 20
100 100 100 99 82 86 80 73 80 64 78 54 51 45 58 56 32 25 33 25 24 20 18 18 14 12 10 11 14 14 13 13 13 14 14 14 14 16 18 18 17 22 21 19 22
100 100 98 96 86 86 80 78 80 62 82 52 46 48 59 58 36 27 36 28 23 18 16 12 17 10 10 12 14 16 15 15 14 15 15 16 17 18 20 18 17 19 20 21 23
100 100 100 94 86 88 81 74 79 62 84 56 45 48 59 57 52 29 38 28 27 22 20 8 15 12 9 10 11 14 18 16 17 18 19 19 20 22 23 20 17 18 18 17 19
100 100 96 94 88 84 80 78 79 68 84 63 48 44 52 55 54 28 36 36 28 20 18 9 10 11 7 9 10 16 20 21 20 17 19 20 24 24 22 22 18 16 16 17 17
100 100 94 97 96 87 81 90 73 80 85 64 48 40 46 52 55 36 26 36 24 19 15 9 6 9 6 8 10 11 12 18 20 21 23 23 24 26 26 21 19 16 16 23 21
89 98 100 94 94 85 91 91 81 84 86 60 44 40 39 47 53 40 22 23 19 16 13 8 5 6 6 6 9 9 10 12 18 27 25 25 26 26 22 20 17 18 20 20 24
93 100 100 100 94 87 100 93 84 84 87 58 45 44 42 48 53 49 30 20 17 14 12 6 4 5 5 6 7 10 8 11 14 22 25 24 26 21 21 21 18 19 19 20 22
98 91 100 100 91 96 97 100 76 90 77 56 42 40 39 44 49 46 39 19 14 14 12 6 4 5 5 6 6 9 11 13 16 17 18 23 29 19 22 21 22 20 19 20 19
Wind_Speed
75 80 85 87 89 90 86 82 84 90 89 88 86 56 41 34 30 31 39 46 63 72 79 81 86 95 100 101 101 103 104 102 105 104 99 106 105 101 99 95 93 92 84 87 82
73 79 84 86 89 90 88 86 84 89 89 86 89 59 43 37 29 27 34 44 63 73 75 75 77 90 97 103 104 105 104 103 104 106 103 105 111 106 104 101 98 93 88 88 85
73 78 84 86 90 91 90 87 87 90 91 86 85 66 52 40 29 22 29 45 61 72 74 80 81 88 95 99 103 104 103 106 106 105 105 105 108 112 109 106 102 100 95 91 88
71 76 82 86 89 92 91 87 87 92 96 89 87 75 56 43 30 21 25 39 50 65 75 80 82 86 90 97 103 104 106 107 107 105 106 104 104 112 113 107 104 103 99 95 90
70 75 79 84 86 90 89 89 89 92 96 96 92 80 59 45 29 18 20 34 52 65 73 80 83 86 90 96 104 103 101 105 103 105 106 106 105 107 107 111 111 108 104 99 95
68 73 78 83 86 88 85 88 88 90 96 101 96 85 61 47 27 15 12 31 48 63 75 81 82 84 88 92 99 95 101 106 105 106 105 107 107 103 103 105 107 108 106 103 98
66 71 76 81 83 85 82 85 87 90 93 100 96 88 63 49 31 20 5 23 40 57 69 77 81 81 83 87 91 96 104 101 102 105 105 106 103 100 102 101 101 102 103 104 101
65 69 74 78 81 83 81 82 84 88 92 99 98 90 65 50 36 26 12 13 36 52 63 73 77 80 80 85 91 96 100 100 99 102 101 102 98 102 101 100 99 101 99 98 101
64 66 71 75 78 80 79 79 84 85 91 98 96 91 70 52 39 31 15 6 26 47 59 68 71 76 80 82 84 90 95 95 97 98 98 97 99 100 100 97 97 96 99 98 97
64 63 68 72 74 78 76 77 80 85 89 95 90 88 74 54 40 35 18 5 14 32 51 63 68 71 74 78 78 83 91 93 93 94 93 95 95 99 94 95 98 96 96 99 95
62 62 64 68 72 75 75 76 76 84 84 90 89 82 78 55 46 38 29 12 2 18 37 53 59 65 70 75 79 82 87 88 90 89 90 93 95 94 93 98 96 97 97 96 96
60 60 63 65 69 72 73 73 72 81 85 86 85 74 69 63 48 40 34 22 6 8 27 45 56 60 67 68 71 74 79 82 87 88 91 94 94 94 92 93 93 94 94 95 97
56 57 61 63 65 68 69 69 69 76 82 83 81 71 64 58 55 45 38 27 12 7 13 33 48 54 59 64 68 71 72 78 83 89 89 90 90 91 89 91 92 92 95 94 97
54 54 57 59 61 64 65 67 68 71 77 80 76 72 64 56 52 55 45 32 20 5 20 31 40 47 52 59 63 66 68 71 77 82 88 89 88 91 89 86 89 90 92 91 94
51 52 54 57 58 61 61 64 66 69 74 79 78 74 70 60 56 54 50 42 29 13 12 24 37 46 52 55 60 63 65 69 74 77 81 86 88 86 86 84 85 87 91 89 88
50 49 51 55 55 57 59 59 61 67 72 75 78 76 72 70 63 57 46 44 39 25 10 17 30 39 49 55 56 59 62 65 69 72 71 79 82 85 82 83 85 87 88 87 84
47 48 47 52 51 54 56 57 62 62 68 71 72 73 72 74 73 64 54 51 39 33 19 11 22 36 46 52 56 60 61 65 67 67 67 73 74 78 82 86 87 85 85 86 84
43 46 44 49 51 51 55 55 59 58 65 68 68 72 71 74 76 72 70 60 50 35 27 15 18 27 40 48 54 59 62 65 67 66 71 71 71 76 86 90 89 85 80 81 81
40 43 44 46 48 49 52 51 57 58 64 68 67 68 70 70 74 77 73 67 59 48 32 21 18 23 29 42 52 58 60 64 63 64 65 68 73 78 86 88 86 84 82 81 81
38 42 42 45 46 46 50 49 54 54 60 65 68 68 70 73 73 76 80 73 62 50 38 25 21 24 27 34 42 53 58 60 61 62 65 67 70 76 82 85 84 84 85 82 81
37 41 42 44 45 44 47 47 51 51 57 62 67 70 68 72 71 74 80 78 70 56 43 29 22 22 28 30 40 47 55 59 62 63 64 67 71 72 78 81 81 84 84 82 81
36 41 42 44 45 43 43 45 47 49 57 58 62 65 71 71 74 76 82 79 73 59 48 35 24 22 28 34 36 41 49 56 59 62 65 68 68 72 76 79 78 80 80 81 81
37 40 41 44 42 42 42 44 47 48 54 59 61 65 69 70 71 71 79 80 74 61 48 37 27 24 26 34 35 39 47 54 60 63 64 67 69 70 74 78 77 76 76 75 77
38 40 41 41 41 42 40 44 46 47 54 58 63 64 68 74 75 71 77 82 72 62 49 36 26 25 26 31 39 41 45 50 55 56 66 65 70 71 77 78 76 73 69 70 73
38 39 40 39 41 40 40 42 45 46 53 57 60 64 66 74 76 70 70 78 74 61 51 36 24 24 25 30 37 42 43 45 49 62 61 69 70 75 78 75 73 69 67 69 71
39 35 39 40 40 39 39 42 44 46 52 55 62 65 68 73 77 78 73 75 72 57 49 36 25 21 24 29 33 39 40 39 46 55 61 68 70 74 74 72 72 71 70 68 69
39 37 39 38 38 38 37 42 42 46 53 56 58 63 67 74 79 80 77 77 70 55 46 36 28 20 21 26 32 34 41 41 44 50 54 55 69 65 69 68 70 70 70 70 70
Wind_Direction
340 339 340 344 346 345 347 348 351 348 347 355 350 343 334 318 296 269 245 228 221 219 219 216 213 214 215 217 215 215 215 215 215 217 214 213 214 216 218 221 222 223 224 225 225
338 338 339 343 346 346 347 349 351 348 350 356 355 348 340 324 303 271 249 229 220 220 220 216 216 214 213 214 214 214 214 214 215 216 216 215 214 215 217 219 221 223 224 224 226
335 336 337 341 345 345 347 350 353 350 351 356 357 352 343 332 314 282 247 229 221 218 216 214 212 215 213 215 214 214 214 214 217 218 217 215 216 216 218 220 222 225 224 224 227
334 334 336 339 344 345 348 349 353 351 352 357 359 357 348 340 325 295 251 232 222 218 214 213 211 213 214 213 214 213 213 216 216 217 217 217 217 219 219 221 222 225 225 225 227
334 334 335 338 343 346 348 350 355 353 355 357 2 0 352 346 334 306 251 220 212 212 211 212 211 212 211 212 214 214 214 217 217 218 218 217 218 219 220 221 224 226 228 228 229
332 332 334 337 342 344 348 350 356 354 358 356 2 0 355 352 349 330 256 221 216 211 210 209 210 211 212 212 215 213 214 216 217 219 219 219 219 219 221 222 224 227 229 230 229
330 331 333 336 341 343 348 350 359 355 359 357 359 360 358 357 4 1 299 220 212 210 210 209 208 209 212 213 215 214 216 217 218 219 220 220 221 221 220 222 223 226 228 231 231
327 330 332 334 340 343 347 351 358 358 1 1 358 1 2 2 13 12 6 224 209 208 209 210 208 209 209 211 213 214 216 217 218 220 221 222 221 222 222 222 223 224 228 230 233
323 328 331 334 339 342 345 353 355 0 3 3 358 0 4 5 17 13 19 241 217 210 207 209 207 209 210 210 212 215 216 217 218 220 221 223 222 223 224 223 223 225 226 229 231
320 326 330 334 337 341 345 353 356 1 0 4 360 358 4 5 18 25 21 23 222 221 215 207 207 208 211 212 213 214 215 216 217 220 221 223 225 224 223 224 224 225 226 227 229
317 324 329 332 336 340 345 352 357 356 3 2 2 358 2 10 15 27 26 48 346 231 220 210 207 207 209 212 215 215 216 216 217 219 221 223 224 225 223 224 224 225 226 227 228
314 322 326 331 335 339 344 349 357 357 2 2 2 5 4 9 17 26 33 22 53 232 216 208 210 211 212 213 214 215 216 216 217 217 220 222 223 226 224 225 225 225 227 227 228
312 319 323 329 334 339 343 347 355 358 359 4 6 9 12 15 16 21 29 33 9 141 215 216 215 213 214 213 215 217 217 217 218 219 220 223 224 227 226 227 226 226 227 229 229
309 317 322 326 332 338 341 346 351 357 357 1 8 6 10 20 25 27 25 25 23 293 196 201 213 216 216 216 216 218 217 217 218 220 221 223 224 226 228 228 228 228 229 230 230
307 314 320 323 331 336 339 345 350 355 356 358 3 5 8 18 23 26 26 24 21 5 265 223 213 213 213 215 219 218 219 220 219 221 221 223 225 226 228 229 229 230 230 230 231
305 313 317 322 329 335 338 345 349 353 356 359 360 6 5 9 17 20 25 23 18 13 323 248 225 221 219 219 219 220 221 222 224 223 220 225 225 228 229 230 231 230 231 230 231
302 310 315 320 327 334 336 344 347 352 355 360 1 2 5 5 10 17 18 15 12 3 357 277 248 233 222 223 222 221 219 221 222 223 222 225 225 228 229 231 231 230 231 231 230
300 306 312 317 324 332 335 342 343 351 353 359 4 7 9 4 5 10 12 10 8 1 343 317 249 234 235 226 224 223 224 223 222 222 222 223 222 224 229 231 231 231 231 232 231
296 302 309 313 321 330 333 340 342 348 353 355 2 6 7 2 0 4 7 7 3 357 346 315 270 244 235 235 231 226 224 225 226 224 223 224 224 224 228 231 232 233 231 230 231
292 298 305 310 318 326 330 336 340 346 351 353 358 2 8 7 360 360 1 1 359 354 347 322 290 247 235 235 236 232 227 224 224 223 223 224 226 227 230 232 232 233 234 230 231
287 294 302 307 316 323 327 334 337 344 349 352 356 359 11 8 3 358 360 359 355 351 345 329 296 263 235 230 232 233 230 225 224 222 223 224 226 228 232 233 233 235 236 235 232
282 292 301 305 312 319 325 330 336 342 347 350 354 359 6 7 7 358 1 359 355 351 343 333 305 271 240 231 232 232 232 230 225 223 222 225 226 229 231 234 233 235 236 236 236
281 289 300 305 310 316 324 328 333 340 343 345 353 356 2 6 7 359 356 358 354 348 341 334 309 275 250 235 229 229 230 228 226 224 224 225 227 230 232 234 235 234 236 238 238
278 288 296 303 308 314 323 325 331 337 340 341 348 354 0 2 3 3 355 355 352 346 341 331 313 286 256 239 228 228 230 229 229 228 227 227 229 230 234 235 236 235 234 238 239
276 287 294 299 306 313 320 322 329 334 338 341 347 352 358 1 3 2 354 351 348 345 340 329 313 293 267 247 236 230 232 232 229 227 227 229 229 231 236 237 240 240 237 236 238
277 283 289 296 304 312 316 321 326 332 336 339 346 351 359 1 1 2 358 350 348 344 339 330 315 297 273 253 245 234 233 235 232 231 232 232 230 236 237 240 241 241 240 239 238
277 282 286 294 302 309 313 319 326 331 334 338 345 352 358 0 0 3 358 350 349 348 338 331 319 304 276 254 248 235 232 233 234 235 235 235 238 239 241 242 245 246 244 244 244